DW7229 Weather Reports


time (UTC)temp
C
wind
direction
speed
KPH
gust
KPH
rain 1hr
cm
rain 24hr
cm
rain mn
cm
humidity
%
barometer
mb
20260902014101 17 0.0 0.0 0.00 0.00 0.00 92 1019.3
20260902013024 17 0.0 0.0 0.00 0.00 0.00 91 1019.2
20260902012047 17 0.0 0.0 0.00 0.00 0.00 91 1019.1
20260902011030 17 0.0 0.0 0.00 0.00 0.00 91 1019.1
20260902010035 17 0.0 0.0 0.00 0.00 0.00 91 1019.1
20260902005019 17 0.0 0.0 0.00 0.00 0.00 91 1018.9
20260902004022 17 0.0 0.0 0.00 0.00 0.00 89 1018.8
20260902003026 17 0.0 0.0 0.00 0.00 0.00 89 1018.7
20260902002029 17 0.0 0.0 0.00 0.00 0.00 89 1018.6
20260902001032 17 0.0 0.0 0.00 0.00 0.00 88 1018.4
20260902000018 17 0.0 0.0 0.00 0.00 0.00 88 1018.4
20260901235021 17 0.0 0.0 0.00 0.00 0.00 88 1018.5
20260901234024 17 0.0 0.0 0.00 0.00 0.00 88 1018.6
20260901233027 17 0.0 0.0 0.00 0.00 0.00 88 1018.6
20260901232051 17 0.0 0.0 0.00 0.00 0.00 88 1018.6
20260901231016 17 0.0 0.0 0.00 0.00 0.00 88 1018.6
20260901230019 18 0.0 0.0 0.00 0.00 0.00 88 1018.7
20260901225023 18 0.0 0.0 0.00 0.00 0.00 88 1018.4
20260901224020 18 0.0 0.0 0.00 0.00 0.00 88 1018.4
20260901223017 18 0.0 0.0 0.00 0.00 0.00 88 1018.3
20260901222033 18 0.0 0.0 0.00 0.00 0.00 88 1018.2
20260901221018 18 0.0 0.0 0.00 0.00 0.00 87 1018.4
20260901220021 18 0.0 0.0 0.00 0.00 0.00 87 1018.3
20260901215024 18 0.0 0.0 0.00 0.00 0.00 87 1018.3
20260901214028 18 0.0 0.0 0.00 0.00 0.00 87 1018.1
20260901213051 18 0.0 0.0 0.00 0.00 0.00 87 1018.1
20260901212016 18 0.0 0.0 0.00 0.00 0.00 87 1018.1
20260901211100 18 0.0 0.0 0.00 0.00 0.00 87 1017.9
20260901210043 19 0.0 0.0 0.00 0.00 0.00 87 1017.9
20260901205026 19 0.0 0.0 0.00 0.00 0.00 87 1017.7
20260901204029 19 0.0 0.0 0.00 0.00 0.00 87 1017.6
20260901203015 19 0.0 0.0 0.00 0.00 0.00 87 1017.6
20260901202018 19 0.0 0.0 0.00 0.00 0.00 87 1017.6
20260901201021 19 0.0 0.0 0.00 0.00 0.00 88 1017.6
20260901200044 19 0.0 0.0 0.00 0.00 0.00 88 1017.5
20260901195028 19 0.0 0.0 0.00 0.00 0.00 88 1017.7
20260901194031 19 0.0 0.0 0.00 0.00 0.00 88 1017.8
20260901193016 19 0.0 0.0 0.00 0.00 0.00 91 1017.8
20260901192020 18 0.0 0.0 0.00 0.00 0.00 94 1017.8
20260901191023 18 0.0 0.0 0.00 0.00 0.00 94 1017.7
20260901190020 18 0.0 0.0 0.00 0.00 0.00 94 1017.8
20260901185018 18 0.0 0.0 0.00 0.00 0.00 94 1017.9
20260901184015 18 0.0 0.0 0.00 0.00 0.00 94 1017.9
20260901183039 18 0.0 0.0 0.00 0.00 0.00 94 1017.8
20260901182022 18 0.0 0.0 0.00 0.00 0.00 94 1017.7
20260901181025 18 0.0 0.0 0.00 0.00 0.00 93 1017.5
20260901180028 18 0.0 0.0 0.00 0.00 0.00 93 1017.5
20260901175031 18 270 0.0 1.6 0.00 0.00 0.00 93 1017.2
20260901174037 18 0.0 0.0 0.00 0.00 0.00 90 1017.5
20260901173020 18 0.0 0.0 0.00 0.00 0.00 90 1017.6
20260901172023 18 0.0 0.0 0.00 0.00 0.00 90 1017.5
20260901171026 18 0.0 0.0 0.00 0.00 0.00 91 1017.7
20260901170029 18 0.0 0.0 0.00 0.00 0.00 92 1017.6
20260901165015 18 0.0 0.0 0.00 0.00 0.00 95 1017.8
20260901164038 17 0.0 0.0 0.00 0.00 0.00 95 1018.0
20260901163042 17 0.0 0.0 0.00 0.00 0.00 95 1018.0
20260901162025 17 0.0 0.0 0.00 0.00 0.00 91 1018.0
20260901161028 17 0.0 0.0 0.00 0.00 0.00 91 1017.8
20260901160032 17 0.0 0.0 0.00 0.00 0.00 91 1017.8
20260901155057 17 0.0 0.0 0.00 0.00 0.00 91 1017.6
20260901154020 17 0.0 0.0 0.00 0.00 0.00 89 1017.5
20260901153023 16 0.0 0.0 0.00 0.00 0.00 89 1017.6
20260901152021 17 0.0 1.6 0.00 0.00 0.00 89 1017.9
20260901151018 17 0.0 0.0 0.00 0.00 0.00 89 1017.6
20260901150015 16 0.0 0.0 0.00 0.00 0.00 89 1017.5
20260901145038 16 0.0 0.0 0.00 0.00 0.00 89 1017.7
20260901144021 16 0.0 0.0 0.00 0.00 0.00 88 1017.6
20260901143025 16 225 0.0 3.2 0.00 0.00 0.00 88 1017.5
20260901142028 16 0.0 0.0 0.00 0.00 0.00 86 1017.4
20260901141032 16 0.0 0.0 0.00 0.00 0.00 86 1017.5
20260901140037 16 0.0 0.0 0.00 0.00 0.00 86 1017.6
20260901135020 16 0.0 0.0 0.00 0.00 0.00 86 1017.8
20260901134024 15 0.0 0.0 0.00 0.00 0.00 85 1017.8
20260901133027 15 0.0 0.0 0.00 0.00 0.00 85 1018.0
20260901132030 15 0.0 0.0 0.00 0.00 0.00 84 1018.2
20260901131015 16 0.0 0.0 0.00 0.00 0.00 83 1018.3
20260901130058 16 0.0 0.0 0.00 0.00 0.00 83 1018.4
20260901125022 16 0.0 0.0 0.00 0.00 0.00 81 1018.4
20260901124025 16 0.0 0.0 0.00 0.00 0.00 81 1018.5
20260901123028 16 0.0 0.0 0.00 0.00 0.00 80 1018.5
20260901122032 16 0.0 0.0 0.00 0.00 0.00 79 1018.3
20260901121017 16 0.0 0.0 0.00 0.00 0.00 77 1018.1
20260901120020 17 0.0 0.0 0.00 0.00 0.00 77 1017.9
20260901115023 17 0.0 0.0 0.00 0.00 0.00 77 1018.0
20260901114021 17 0.0 0.0 0.00 0.00 0.00 77 1017.9
20260901113018 17 0.0 0.0 0.00 0.00 0.00 77 1017.7
20260901112015 17 0.0 0.0 0.00 0.00 0.00 77 1017.6
20260901111019 17 0.0 0.0 0.00 0.00 0.00 77 1017.7
20260901110022 17 0.0 0.0 0.00 0.00 0.00 77 1017.6
20260901105045 17 0.0 0.0 0.00 0.00 0.00 78 1017.4
20260901104028 17 0.0 0.0 0.00 0.00 0.00 78 1017.4
20260901103052 17 0.0 0.0 0.00 0.00 0.00 79 1017.3
20260901102037 17 0.0 0.0 0.00 0.00 0.00 79 1017.1
20260901101040 17 0.0 0.0 0.00 0.00 0.00 79 1017.0
20260901100023 17 0.0 0.0 0.00 0.00 0.00 79 1016.7
20260901095027 17 0.0 0.0 0.00 0.00 0.00 79 1016.7
20260901094030 17 0.0 0.0 0.00 0.00 0.00 79 1016.7
20260901093015 17 0.0 0.0 0.00 0.00 0.00 79 1016.7
20260901092119 17 0.0 0.0 0.00 0.00 0.00 79 1016.8
20260901091022 17 0.0 0.0 0.00 0.00 0.00 79 1016.9
20260901090025 17 0.0 0.0 0.00 0.00 0.00 79 1016.8
20260901085049 17 0.0 0.0 0.00 0.00 0.00 79 1016.7
20260901084032 17 0.0 0.0 0.00 0.00 0.00 79 1016.6
20260901083017 17 0.0 0.0 0.00 0.00 0.00 79 1016.7
20260901082020 17 0.0 0.0 0.00 0.00 0.00 79 1016.8
20260901081044 17 0.0 0.0 0.00 0.00 0.00 79 1016.8
20260901080021 17 0.0 0.0 0.00 0.00 0.00 79 1017.0
20260901075038 17 0.0 0.0 0.00 0.00 0.00 79 1017.1
20260901074016 17 0.0 0.0 0.00 0.00 0.00 79 1017.1
20260901073019 17 0.0 0.0 0.00 0.00 0.00 79 1017.0
20260901072022 17 0.0 0.0 0.00 0.00 0.00 79 1017.0
20260901071026 17 0.0 0.0 0.00 0.00 0.00 79 1017.2
20260901070029 17 0.0 0.0 0.00 0.00 0.00 79 1017.3
20260901065032 17 0.0 0.0 0.00 0.00 0.00 79 1017.4
20260901064017 17 0.0 0.0 0.00 0.00 0.00 79 1017.3
20260901063020 17 0.0 0.0 0.00 0.00 0.00 79 1017.4
20260901062104 17 0.0 0.0 0.00 0.00 0.00 79 1017.5
20260901061027 16 0.0 0.0 0.00 0.00 0.00 79 1017.5
20260901060030 16 0.0 0.0 0.00 0.00 0.00 79 1017.5
20260901055016 16 0.0 0.0 0.00 0.00 0.00 79 1017.5
20260901054019 16 0.0 0.0 0.00 0.00 0.00 79 1017.7
20260901053022 16 0.0 0.0 0.00 0.00 0.00 79 1017.6
20260901052026 16 0.0 0.0 0.00 0.00 0.00 78 1017.5
20260901051029 16 0.0 0.0 0.00 0.00 0.00 78 1017.4
20260901050052 16 0.0 0.0 0.00 0.00 0.00 78 1017.6
20260901045018 16 0.0 0.0 0.00 0.00 0.00 77 1017.6
20260901044022 16 0.0 0.0 0.00 0.00 0.00 76 1017.7
20260901043024 16 0.0 0.0 0.00 0.00 0.00 76 1017.7
20260901042021 16 0.0 0.0 0.00 0.00 0.00 76 1017.7
20260901041019 16 0.0 0.0 0.00 0.00 0.00 76 1017.7
20260901040036 16 0.0 0.0 0.00 0.00 0.00 76 1017.5
20260901035019 16 0.0 0.0 0.00 0.00 0.00 75 1017.8
20260901034022 16 0.0 0.0 0.00 0.00 0.00 75 1017.7
20260901033026 16 0.0 0.0 0.00 0.00 0.00 75 1017.8
20260901032029 16 0.0 0.0 0.00 0.00 0.00 74 1017.8
20260901031032 16 0.0 0.0 0.00 0.00 0.00 74 1017.6
20260901030038 16 0.0 0.0 0.00 0.00 0.00 74 1017.7
20260901025021 16 0.0 0.0 0.00 0.00 0.00 74 1017.6
20260901024045 16 0.0 0.0 0.00 0.00 0.00 73 1017.9
20260901023028 16 0.0 0.0 0.00 0.00 0.00 73 1017.8
20260901022031 17 0.0 0.0 0.00 0.00 0.00 72 1017.7
20260901021057 17 0.0 0.0 0.00 0.00 0.00 72 1017.7
20260901020020 17 0.0 0.0 0.00 0.00 0.00 71 1017.7
20260901015023 17 0.0 0.0 0.00 0.00 0.00 71 1017.9